Погода в Усть-Соснове

Россия / Кемеровская область (Кузбасс)     55°13′32″N   84°59′41″E
темп.,
°C
ветер,
м/с
пор.,
м/с
влажн.,
%
обл.,
%
осадки,
мм/ч
давл.,
гПа
погр.,
м
17 апреля, сб
сб1701:000ссв51098100 1.5 1016632
04:00−1с3792100 0.4 1018417
07:00−1ссв5880100 0.5 1020829
10:00−3с5683100 0.0 1022738
13:00−3с457130 0.1 1024891
16:00−2с3462100 0.0 1025835
19:00−2ссз116427 0.0 1025494
22:00−4ююв217831 0.0 102524
18 апреля, вс
вс1801:00−4ю2678100 0.0 1023205
04:00−2ююз4977100 0.0 1020402
07:00−1юз51177100 0.0 1018574
10:00+2юз61073100 0.0 1016938
13:00+4юз71166100 0.0 10141191
16:00+5юз61065100 0.0 10111373
19:00+2ююз61398100 1.1 1008681
22:00+2ююз3898100 2.7 1004505
19 апреля, пн
пн1901:00+3зюз71493100 7.8 1000859
04:00−4сз10158888 0.8 1004777
07:00−7сз91384100 0.9 1012993
10:00−7сз81064100 0.1 10181276
13:00−5сз6852100 0.1 10211711
16:00−4зсз6746100 0.0 10222069
19:00−4сз6750100 0.1 10231541
22:00−6сз576362 0.1 10251190
20 апреля, вт
вт2001:00−7сз465517 0.1 10251193
04:00−7сз466078 0.0 10251070
07:00−7сз466421 0.0 1026947
10:00−6сз4455100 0.0 10261082
13:00−4сз4447100 0.0 10261409
16:00−2сз4542100 0.0 10251742
19:00−2сз344299 0.0 10251570
22:00−3ссз1256100 0.0 102539
21 апреля, ср
ср2101:00−3зсз235892 0.1 1025167
04:00−4з23666 0.1 1024179
07:00−4юз13605 0.1 1024200
10:00−2юз3443100 0.0 10251544
13:000ююз3336100 0.1 10252014
16:00+1ю1235100 0.0 10261871
19:00+1всв334692 0.0 1028551
22:00−2в36696 0.0 1031156